TimeCST,TemperatureF,Dew PointF,Humidity,Sea Level PressureIn,VisibilityMPH,Wind Direction,Wind SpeedMPH,Gust SpeedMPH,PrecipitationIn,Events,Conditions,WindDirDegrees,DateUTC
12:53 AM,23.0,19.9,88,30.27,10.0,West,5.8,-,N/A,,Clear,270,2013-02-28 06:53:00
1:53 AM,24.1,19.9,84,30.26,10.0,WNW,6.9,-,N/A,,Clear,300,2013-02-28 07:53:00
2:53 AM,24.1,19.0,81,30.27,10.0,WNW,10.4,-,N/A,,Clear,300,2013-02-28 08:53:00
3:53 AM,25.0,19.9,81,30.27,10.0,NW,12.7,35.7,N/A,,Clear,310,2013-02-28 09:53:00
4:53 AM,25.0,19.9,81,30.29,10.0,NW,13.8,-,N/A,,Clear,310,2013-02-28 10:53:00
6:53 AM,21.9,18.0,85,30.30,10.0,NNW,6.9,-,N/A,,Clear,340,2013-02-28 12:53:00
8:53 AM,25.0,18.0,75,30.32,10.0,West,6.9,-,N/A,,Clear,280,2013-02-28 14:53:00
9:53 AM,28.9,19.9,69,30.32,10.0,NW,12.7,-,N/A,,Clear,320,2013-02-28 15:53:00
10:53 AM,32.0,21.9,66,30.31,10.0,NNW,16.1,21.9,N/A,,Clear,330,2013-02-28 16:53:00
11:53 AM,33.1,24.1,70,30.32,10.0,NNW,15.0,-,N/A,,Clear,340,2013-02-28 17:53:00
12:53 PM,35.1,25.0,67,30.31,10.0,NNW,13.8,-,N/A,,Clear,340,2013-02-28 18:53:00
1:53 PM,36.0,25.0,64,30.29,10.0,NNW,9.2,-,N/A,,Clear,340,2013-02-28 19:53:00
2:53 PM,37.9,26.1,62,30.27,10.0,North,4.6,-,N/A,,Clear,360,2013-02-28 20:53:00
3:53 PM,37.9,26.1,62,30.26,10.0,North,4.6,-,N/A,,Clear,350,2013-02-28 21:53:00
4:53 PM,37.9,26.1,62,30.25,10.0,North,5.8,-,N/A,,Clear,350,2013-02-28 22:53:00
5:53 PM,37.0,26.1,65,30.26,10.0,Calm,Calm,-,N/A,,Clear,0,2013-02-28 23:53:00
6:53 PM,28.9,24.1,82,30.28,10.0,ENE,3.5,-,N/A,,Partly Cloudy,70,2013-03-01 00:53:00
7:53 PM,28.9,24.1,82,30.29,10.0,East,5.8,-,N/A,,Partly Cloudy,90,2013-03-01 01:53:00
8:53 PM,27.0,24.1,89,30.30,10.0,Calm,Calm,-,N/A,,Mostly Cloudy,0,2013-03-01 02:53:00
9:53 PM,21.9,21.0,96,30.29,9.0,Calm,Calm,-,N/A,,Clear,0,2013-03-01 03:53:00
10:53 PM,21.0,19.0,92,30.29,8.0,Calm,Calm,-,N/A,,Clear,0,2013-03-01 04:53:00
11:53 PM,21.0,19.0,92,30.28,8.0,Calm,Calm,-,N/A,,Mostly Cloudy,0,2013-03-01 05:53:00